Weather History for KFNL - March, 2013

Change the Weather History Date:

Sunday, March 3, 2013

  Actual Average Record
Temperature  
Mean Temperature 44 °F -  
Max Temperature 59 °F 45 °F 71 °F (2009)
Min Temperature 30 °F 20 °F 3 °F (2002)
Degree Days  
Heating Degree Days 20    
Moisture  
Dew Point 28 °F    
Average Humidity 56    
Maximum Humidity 86    
Minimum Humidity 29    
Precipitation  
Precipitation 0.00 in - - ()
Sea Level Pressure  
Sea Level Pressure 29.77 in    
Wind  
Wind Speed 7 mph (NW)    
Max Wind Speed 25 mph    
Max Gust Speed 34 mph    
Visibility 10 miles    
Events      
Averages and records for this station are not official NWS values.
T = Trace of Precipitation, MM = Missing Value Source: NWS Daily Summary

Daily Weather History Graph

Daily Weather History Graph

Search for Another Location

Airport or City:

Trip Planner

Search our weather history database for the weather conditions in past years. The results will help you decide how hot, cold, wet, or windy it might be!

Date:

Astronomy

Mar. 03, 2013 Rise Set
Actual Time 6:30 AM MST 5:54 PM MST
Civil Twilight 6:02 AM MST 6:21 PM MST
Nautical Twilight 5:31 AM MST 6:53 PM MST
Astronomical Twilight 4:59 AM MST 7:24 PM MST
Moon No Moon Rise 9:46 AM MST (3/3)
Length of Visible Light 12h 18m
Length of Day
11h 23m
Waning Gibbous, 63% of the Moon is Illuminated
Mar 3
Waning Gibbous
Mar 4
Last Quarter
Mar 11
New
Mar 19
First Quarter
Mar 27
Full

Hourly Weather History & Observations

Time (MST) Temp. Windchill Dew Point Humidity Pressure Visibility Wind Dir Wind Speed Gust Speed Precip Events Conditions
12:55 AM 33.8 °F 27.7 °F 26.6 °F 75% 30.00 in 10.0 mi North 6.9 mph - N/A   Clear
1:15 AM 33.8 °F 27.7 °F 28.4 °F 81% 29.99 in 10.0 mi NNW 6.9 mph - N/A   Clear
1:35 AM 33.8 °F - 28.4 °F 81% 29.97 in 10.0 mi Calm Calm - N/A   Clear
1:55 AM 33.8 °F - 28.4 °F 81% 29.96 in 10.0 mi Calm Calm - N/A   Clear
2:15 AM 33.8 °F - 28.4 °F 81% 29.95 in 10.0 mi Calm Calm - N/A   Clear
2:35 AM 33.8 °F - 28.4 °F 81% 29.94 in 10.0 mi Calm Calm - N/A   Clear
2:55 AM 33.8 °F - 28.4 °F 81% 29.92 in 10.0 mi Calm Calm - N/A   Clear
3:15 AM 33.8 °F 29.6 °F 26.6 °F 75% 29.91 in 10.0 mi North 4.6 mph - N/A   Clear
3:35 AM 33.8 °F 29.6 °F 28.4 °F 81% 29.90 in 10.0 mi North 4.6 mph - N/A   Clear
3:55 AM 33.8 °F 30.8 °F 28.4 °F 81% 29.89 in 10.0 mi NNE 3.5 mph - N/A   Clear
4:15 AM 33.8 °F 28.6 °F 28.4 °F 81% 29.88 in 10.0 mi NE 5.8 mph - N/A   Clear
4:35 AM 33.8 °F 29.6 °F 26.6 °F 75% 29.87 in 10.0 mi NE 4.6 mph - N/A   Clear
4:55 AM 30.2 °F 24.3 °F 24.8 °F 80% 29.87 in 10.0 mi North 5.8 mph - N/A   Clear
5:15 AM 30.2 °F 23.4 °F 26.6 °F 86% 29.86 in 10.0 mi North 6.9 mph - N/A   Clear
5:35 AM 32.0 °F - 26.6 °F 80% 29.85 in 10.0 mi Calm Calm - N/A   Clear
5:55 AM 33.8 °F 30.8 °F 26.6 °F 75% 29.86 in 10.0 mi North 3.5 mph - N/A   Clear
6:15 AM 33.8 °F 30.8 °F 28.4 °F 81% 29.84 in 10.0 mi NNE 3.5 mph - N/A   Clear
6:35 AM 35.6 °F 30.7 °F 26.6 °F 70% 29.84 in 10.0 mi NNE 5.8 mph - N/A   Clear
6:55 AM 35.6 °F 28.6 °F 28.4 °F 75% 29.84 in 10.0 mi NNE 9.2 mph - N/A   Clear
7:15 AM 33.8 °F - 28.4 °F 81% 29.85 in 10.0 mi Calm Calm - N/A   Clear
7:35 AM 35.6 °F - 26.6 °F 70% 29.85 in 10.0 mi Calm Calm - N/A   Clear
8:15 AM 35.6 °F 29.9 °F 28.4 °F 75% 29.85 in 10.0 mi South 6.9 mph - N/A   Clear
8:35 AM 35.6 °F - 28.4 °F 75% 29.84 in 10.0 mi Calm Calm - N/A   Clear
8:55 AM 35.6 °F 29.2 °F 28.4 °F 75% 29.83 in 10.0 mi SE 8.1 mph - N/A   Clear
9:15 AM 39.2 °F 37.0 °F 30.2 °F 70% 29.82 in 10.0 mi WSW 3.5 mph - N/A   Clear
9:35 AM 44.6 °F 40.7 °F 26.6 °F 49% 29.81 in 10.0 mi SSE 6.9 mph - N/A   Clear
9:55 AM 48.2 °F - 28.4 °F 46% 29.80 in 10.0 mi NNE 10.4 mph - N/A   Clear
10:15 AM 44.6 °F 40.2 °F 30.2 °F 57% 29.79 in 10.0 mi ENE 8.1 mph - N/A   Clear
10:35 AM 48.2 °F - 30.2 °F 50% 29.79 in 10.0 mi ENE 8.1 mph - N/A   Clear
10:55 AM 53.6 °F - 30.2 °F 41% 29.78 in 10.0 mi SW 8.1 mph - N/A   Clear
11:15 AM 51.8 °F - 32.0 °F 47% 29.77 in 10.0 mi ESE 8.1 mph - N/A   Clear
11:35 AM 53.6 °F - 33.8 °F 47% 29.76 in 10.0 mi SE 13.8 mph - N/A   Clear
11:55 AM 55.4 °F - 30.2 °F 38% 29.75 in 10.0 mi SE 15.0 mph 19.6 mph N/A   Clear
12:15 PM 55.4 °F - 30.2 °F 38% 29.73 in 10.0 mi SE 10.4 mph 18.4 mph N/A   Clear
12:35 PM 53.6 °F - 30.2 °F 41% 29.71 in 10.0 mi SSE 11.5 mph - N/A   Clear
12:55 PM 53.6 °F - 30.2 °F 41% 29.71 in 10.0 mi ESE 8.1 mph - N/A   Clear
1:15 PM 57.2 °F - 26.6 °F 31% 29.69 in 10.0 mi SSE 16.1 mph 23.0 mph N/A   Clear
1:35 PM 55.4 °F - 30.2 °F 38% 29.69 in 10.0 mi SSE 5.8 mph - N/A   Clear
1:55 PM 57.2 °F - 28.4 °F 33% 29.67 in 10.0 mi South 8.1 mph - N/A   Clear
2:15 PM 59.0 °F - 26.6 °F 29% 29.67 in 10.0 mi West 20.7 mph 29.9 mph N/A   Clear
2:35 PM 57.2 °F - 26.6 °F 31% 29.66 in 10.0 mi West 25.3 mph 34.5 mph N/A   Clear
2:55 PM 57.2 °F - 26.6 °F 31% 29.66 in 10.0 mi West 25.3 mph 31.1 mph N/A   Clear
3:15 PM 57.2 °F - 26.6 °F 31% 29.67 in 10.0 mi WSW 13.8 mph 25.3 mph N/A   Partly Cloudy
3:35 PM 57.2 °F - 26.6 °F 31% 29.67 in 10.0 mi SW 23.0 mph 31.1 mph N/A   Partly Cloudy
3:55 PM 57.2 °F - 26.6 °F 31% 29.66 in 10.0 mi WSW 18.4 mph 26.5 mph N/A   Clear
4:15 PM 55.4 °F - 26.6 °F 33% 29.66 in 10.0 mi WSW 17.3 mph 23.0 mph N/A   Clear
4:35 PM 55.4 °F - 26.6 °F 33% 29.66 in 10.0 mi WSW 21.9 mph 27.6 mph N/A   Clear
4:55 PM 55.4 °F - 26.6 °F 33% 29.67 in 10.0 mi WSW 15.0 mph 27.6 mph N/A   Clear
5:35 PM 53.6 °F - 26.6 °F 35% 29.69 in 10.0 mi West 10.4 mph - N/A   Clear
5:55 PM 51.8 °F - 26.6 °F 38% 29.70 in 10.0 mi WSW 12.7 mph - N/A   Clear
6:15 PM 48.2 °F - 26.6 °F 43% 29.70 in 10.0 mi West 9.2 mph - N/A   Clear
6:35 PM 48.2 °F - 26.6 °F 43% 29.71 in 10.0 mi West 4.6 mph - N/A   Clear
6:55 PM 51.8 °F - 26.6 °F 38% 29.71 in 10.0 mi NW 9.2 mph - N/A   Clear
7:15 PM 46.4 °F 42.9 °F 28.4 °F 50% 29.71 in 10.0 mi NW 6.9 mph - N/A   Clear
7:35 PM 46.4 °F 42.9 °F 26.6 °F 46% 29.72 in 10.0 mi NE 6.9 mph - N/A   Clear
7:55 PM 48.2 °F - 28.4 °F 46% 29.71 in 10.0 mi NE 6.9 mph - N/A   Clear
8:15 PM 48.2 °F - 28.4 °F 46% 29.71 in 10.0 mi NW 3.5 mph - N/A   Clear
8:35 PM 48.2 °F - 28.4 °F 46% 29.69 in 10.0 mi NE 3.5 mph - N/A   Clear
8:55 PM 46.4 °F - 28.4 °F 50% 29.69 in 10.0 mi Calm Calm - N/A   Clear
9:15 PM 44.6 °F - 28.4 °F 53% 29.69 in 10.0 mi Calm Calm - N/A   Clear
9:35 PM 44.6 °F 43.1 °F 28.4 °F 53% 29.69 in 10.0 mi East 3.5 mph - N/A   Clear
9:55 PM 44.6 °F 42.2 °F 28.4 °F 53% 29.70 in 10.0 mi SE 4.6 mph - N/A   Clear
10:15 PM 42.8 °F - 26.6 °F 53% 29.69 in 10.0 mi Calm Calm - N/A   Clear
10:35 PM 39.2 °F - 28.4 °F 65% 29.69 in 10.0 mi Calm Calm - N/A   Clear
10:55 PM 46.4 °F 41.9 °F 26.6 °F 46% 29.69 in 10.0 mi NW 9.2 mph - N/A   Clear
11:15 PM 44.6 °F 38.1 °F 26.6 °F 49% 29.69 in 10.0 mi NNW 13.8 mph - N/A   Clear
11:35 PM 46.4 °F 40.1 °F 28.4 °F 50% 29.69 in 10.0 mi WNW 15.0 mph 20.7 mph N/A   Clear
11:55 PM 44.6 °F 38.1 °F 28.4 °F 53% 29.69 in 10.0 mi West 13.8 mph - N/A   Clear